Theta_e
330 330 330 330 330 330 330 330 330 331 331 331 331 331 331 331 331 331 331 331 330 330 330 329 329 328 328 328 328 327 326 325 324 323 322 322 322 321 319 317 316 315
330 330 330 330 330 330 330 330 330 330 330 330 330 330 330 331 331 331 331 331 331 330 329 329 329 329 328 328 327 327 325 324 324 323 322 322 321 320 319 317 316 314
331 331 330 330 330 329 330 330 329 329 329 329 330 329 329 330 330 330 330 330 330 330 329 329 329 329 328 327 327 326 325 324 323 323 322 321 321 320 319 316 314 313
331 331 331 330 330 329 329 329 329 329 329 329 329 329 329 329 329 329 330 330 329 330 329 329 329 328 328 327 326 324 324 323 323 323 322 321 320 319 317 315 314 312
330 331 331 331 330 330 329 329 329 329 329 329 329 329 329 329 329 330 330 330 329 329 329 329 329 328 327 326 324 323 323 322 322 322 321 320 319 317 316 314 312 311
330 330 330 330 330 330 329 329 329 329 329 329 329 330 330 330 330 330 330 330 329 329 329 329 328 327 326 324 323 323 323 323 322 321 320 319 318 316 314 313 311 309
329 329 330 330 330 330 330 329 329 329 329 329 330 330 330 330 330 330 330 330 329 328 328 327 327 326 324 323 323 323 322 322 322 321 319 317 316 314 312 311 308 306
328 328 329 329 329 330 329 329 329 329 329 329 330 330 330 330 330 330 330 329 329 328 327 327 325 324 324 323 323 322 322 321 320 319 317 315 314 312 310 308 305 303
325 326 327 327 328 328 328 328 328 328 329 329 329 330 330 330 330 330 330 329 329 328 327 327 325 323 322 322 322 322 321 320 319 318 317 315 313 311 309 306 302 299
324 325 326 326 327 327 327 328 328 328 328 329 329 330 330 330 330 330 329 329 328 328 327 325 323 322 321 321 321 322 321 320 319 317 316 315 313 311 308 305 300 296
324 325 325 325 326 327 327 327 327 328 328 328 329 329 329 329 329 329 329 328 328 327 326 325 322 321 320 320 320 321 321 320 319 317 315 314 313 310 308 304 299 294
323 324 324 324 325 325 326 327 327 327 328 328 329 329 329 329 329 328 328 327 327 326 325 324 322 321 320 319 319 320 320 319 318 317 315 313 311 309 306 303 297 293
320 321 321 321 322 322 322 323 324 325 326 327 327 327 328 328 327 327 326 326 325 325 325 324 322 320 319 317 318 319 318 317 316 315 313 311 309 307 304 300 295 292
316 315 315 315 316 317 318 319 320 321 322 323 324 324 324 325 325 325 324 323 324 325 325 323 321 319 318 317 318 317 315 314 314 314 312 309 306 303 300 297 293 291
311 310 311 312 313 315 317 318 319 320 320 321 321 321 322 322 323 323 322 323 324 324 323 320 318 317 317 317 317 315 313 312 313 313 311 307 303 299 296 293 292 291
308 307 308 310 312 313 315 316 318 319 319 319 320 320 321 321 322 322 322 322 323 322 320 317 316 315 315 316 316 315 314 313 313 312 309 304 301 297 294 292 291 290
305 305 305 306 308 310 312 314 315 316 317 318 318 319 319 319 320 320 320 320 318 317 316 315 315 314 314 314 314 314 314 314 312 310 306 302 299 296 293 291 290 290
303 304 304 304 305 306 308 310 312 313 315 315 316 316 317 317 317 317 317 317 316 314 314 315 315 314 313 313 313 313 312 311 310 309 306 301 297 294 292 291 290 289
303 304 305 306 306 307 307 308 309 310 311 312 313 314 314 315 315 315 315 314 314 313 313 313 313 312 312 311 311 310 309 309 310 309 306 301 296 293 291 291 290 289
304 305 306 307 308 308 308 308 309 309 309 310 311 311 312 313 313 313 313 313 312 312 312 312 311 311 311 309 308 307 306 306 306 305 303 299 295 292 291 290 290 290
304 305 306 307 308 308 309 309 309 310 310 310 310 311 311 311 311 312 312 312 311 310 310 310 310 309 308 307 306 305 304 303 303 302 299 297 293 291 290 290 290 290
304 305 306 307 308 308 309 309 309 309 309 309 309 309 309 309 310 310 311 310 309 308 308 308 308 307 306 305 306 305 304 303 302 300 298 295 292 291 290 290 290 289
304 305 306 307 308 308 308 309 309 310 309 309 309 309 308 308 308 308 308 307 307 306 306 306 306 306 305 306 306 306 305 303 301 299 297 294 291 290 289 289 289 289
303 304 306 307 307 307 308 308 308 308 308 307 307 307 307 306 305 304 304 304 303 303 304 304 304 304 304 305 306 306 305 304 301 298 294 292 289 289 288 288 288 288
303 304 305 306 306 306 307 307 306 306 305 304 304 304 304 304 303 303 302 302 301 301 301 302 302 303 303 303 303 303 302 301 298 295 291 289 288 287 287 287 287 287
303 304 304 305 305 305 305 305 304 304 303 303 302 301 301 301 301 301 300 300 300 300 300 300 301 302 302 302 302 300 299 298 296 293 290 288 287 287 287 287 287 287
Wind_Speed
41 40 39 38 38 38 37 37 37 37 38 39 39 40 41 40 40 40 41 42 42 42 41 41 40 39 37 36 34 33 31 30 30 29 28 28 30 29 26 25 24 24
40 40 38 38 38 38 38 38 38 38 39 39 39 39 39 39 39 39 40 41 41 41 41 41 40 39 37 36 35 33 31 29 28 29 29 30 31 29 27 26 25 24
39 40 40 40 39 39 39 38 38 38 39 39 39 38 38 38 39 39 39 40 41 41 41 41 40 39 37 36 34 32 30 28 28 30 31 31 31 29 27 26 26 26
39 41 41 42 41 40 38 37 37 38 38 38 38 38 38 38 38 38 39 40 40 40 41 41 40 38 37 35 33 32 30 29 30 32 33 32 31 28 26 27 27 28
40 40 40 40 40 39 37 36 37 38 37 37 37 37 37 38 38 37 38 39 39 40 40 40 39 37 36 35 33 32 30 30 32 34 34 32 29 27 27 27 28 30
38 39 38 38 37 37 37 37 37 37 37 37 36 36 37 38 38 38 38 38 38 39 39 39 38 37 36 36 34 33 32 33 34 35 33 31 29 28 28 28 30 32
36 36 36 36 35 35 36 37 36 36 36 35 35 35 36 36 37 37 37 38 38 38 38 38 38 38 38 37 36 35 35 36 36 36 34 32 30 30 29 29 31 33
33 33 33 33 34 34 35 35 35 35 34 34 35 35 35 36 36 36 36 37 37 37 37 37 38 39 40 39 38 38 37 37 37 37 35 33 31 30 30 30 32 34
29 29 29 30 31 32 33 33 34 34 33 34 34 34 34 34 34 34 35 35 35 36 37 38 39 40 41 42 41 40 39 39 38 37 35 33 32 31 31 32 33 34
25 25 25 25 26 28 29 29 30 31 31 31 31 32 32 33 34 33 33 33 34 36 38 39 40 41 42 43 43 42 40 40 39 37 36 34 32 32 33 34 35 35
21 22 22 23 23 24 25 25 26 27 27 27 27 29 30 31 32 33 34 34 34 35 36 38 40 41 43 44 44 42 41 41 40 38 36 34 32 32 33 35 36 35
21 21 22 23 23 23 22 22 22 23 24 25 26 28 30 31 33 34 34 32 31 32 35 38 40 42 44 45 44 43 42 41 41 38 35 34 33 33 34 36 37 36
21 21 22 22 23 23 23 23 22 22 23 24 24 25 28 30 30 30 30 29 30 33 37 39 40 42 44 43 42 42 41 41 39 36 34 33 33 33 35 37 38 37
20 20 20 21 22 22 22 24 24 25 25 26 26 28 30 30 31 32 34 35 36 36 37 39 41 42 43 43 42 41 41 39 37 34 33 33 33 34 36 38 38 37
17 17 17 17 19 20 21 21 22 22 23 24 26 28 29 29 30 33 35 35 35 35 36 37 39 40 42 43 43 42 39 37 35 33 33 34 34 35 36 37 37 36
16 16 17 17 18 19 20 20 21 22 23 24 25 26 27 27 27 28 29 30 32 34 34 35 36 38 40 41 42 40 38 36 35 34 34 34 35 36 36 36 36 35
16 15 15 17 18 18 18 18 18 19 20 22 23 24 25 26 27 27 28 29 30 30 31 32 34 35 36 37 38 37 37 38 37 35 34 34 35 37 38 37 36 34
14 13 12 12 13 15 16 17 17 16 16 16 18 18 19 21 22 24 25 26 26 27 28 30 31 33 34 34 35 36 38 38 35 33 33 35 36 38 39 38 37 36
13 13 12 12 11 11 13 14 15 16 15 15 15 15 16 17 19 21 22 23 24 25 26 28 29 30 32 33 34 36 36 35 34 33 34 35 37 39 40 40 39 38
14 14 13 13 13 13 12 13 14 15 15 15 15 15 16 16 17 18 19 20 21 23 24 26 27 29 30 32 33 33 33 33 33 32 32 34 37 39 40 40 40 40
16 15 14 14 14 14 14 14 15 15 16 17 17 17 17 17 18 18 19 19 20 21 23 24 26 27 29 29 30 31 31 31 30 30 31 34 36 38 40 40 40 39
17 16 16 15 15 15 15 15 15 15 15 16 16 17 18 18 18 19 20 20 20 21 22 24 25 26 27 27 28 29 30 29 29 30 31 33 36 38 39 39 39 38
18 17 17 16 16 16 16 15 14 13 14 14 15 16 17 17 18 18 19 19 20 21 22 23 24 25 25 25 26 28 29 30 31 31 32 34 36 37 37 37 38 38
18 18 17 17 17 16 15 14 13 13 12 12 13 13 14 14 15 15 16 17 18 19 20 21 22 22 23 24 25 27 29 30 31 31 32 33 33 34 34 35 36 36
16 16 16 15 15 13 12 11 11 10 10 10 10 10 10 11 12 13 14 14 16 17 18 19 20 20 21 22 23 25 27 29 30 30 30 30 30 31 31 32 33 33
14 14 13 12 11 10 9 8 8 7 7 7 8 9 8 9 9 10 12 12 13 15 16 17 18 18 19 19 21 23 26 28 29 30 30 30 30 31 31 32 33 33
Wind_Direction
223 224 225 226 226 227 226 225 224 222 222 221 221 222 223 223 223 222 223 224 224 224 224 225 225 224 225 226 226 224 224 225 226 228 229 226 223 223 224 225 226 224
225 225 226 227 228 229 228 227 226 225 225 225 225 226 226 226 226 225 224 224 224 225 224 224 224 223 224 225 224 225 226 227 227 227 225 222 221 222 224 225 223 220
226 226 226 227 228 229 229 229 228 228 229 229 229 229 229 229 229 228 226 226 225 224 223 223 223 223 224 225 224 226 227 228 229 226 222 220 222 224 226 225 220 218
226 226 227 228 229 229 230 229 228 228 228 229 230 230 230 230 231 229 227 226 225 223 222 222 223 223 224 224 224 225 225 228 229 225 219 219 223 227 227 224 219 216
226 227 228 229 229 229 229 229 229 229 228 229 230 230 230 230 229 227 225 224 223 222 221 221 222 223 223 222 222 222 223 224 223 219 218 221 225 229 229 225 220 214
229 230 229 230 230 230 230 230 231 230 228 229 230 229 229 228 227 225 223 221 220 219 220 221 222 221 220 219 219 220 221 220 218 217 220 223 227 229 228 225 220 213
232 233 232 232 233 233 233 233 233 232 230 230 230 229 228 226 225 223 222 221 220 219 220 221 221 220 218 217 216 217 217 216 216 217 220 222 223 223 221 221 217 210
237 237 236 236 235 235 235 235 235 233 232 231 230 229 228 226 225 223 223 223 222 222 224 224 223 220 216 214 214 214 213 213 215 216 218 220 219 219 218 216 211 207
239 238 237 236 235 235 236 236 235 234 232 231 230 229 228 227 227 225 223 223 225 228 229 228 225 220 216 213 212 212 212 213 215 217 218 219 219 219 216 211 206 204
232 230 229 229 229 231 232 232 232 231 230 230 229 228 228 228 228 227 226 227 229 230 229 228 225 219 216 214 213 214 215 216 217 218 219 221 221 220 216 209 204 202
221 219 219 220 221 223 225 226 227 227 228 229 228 228 228 228 228 228 228 227 228 229 229 229 226 221 218 216 214 215 218 219 218 219 220 222 223 221 215 208 203 201
220 219 219 219 220 221 221 222 223 224 226 227 228 229 229 229 229 227 224 224 229 234 235 232 229 225 222 218 215 215 217 218 218 218 220 221 221 218 213 207 203 202
227 228 229 229 230 230 230 229 229 229 228 229 230 231 230 228 226 225 228 233 238 239 237 233 229 225 222 218 215 216 217 216 215 216 218 220 219 216 210 205 203 202
230 233 236 238 238 238 239 238 237 237 237 237 238 238 237 236 234 236 238 237 235 234 234 231 227 223 221 218 217 218 218 215 213 214 217 218 216 213 207 203 202 203
230 231 231 233 234 235 236 236 236 237 239 240 241 241 242 243 242 239 235 230 229 231 232 228 224 222 220 218 218 218 216 214 213 215 217 216 212 208 205 203 202 202
225 225 223 222 224 227 230 232 233 235 237 238 240 241 243 244 243 239 234 231 231 231 229 225 223 222 221 220 220 220 218 215 215 215 215 214 209 205 203 203 203 202
222 225 226 223 221 222 224 227 229 231 232 232 234 236 238 238 238 237 235 235 234 231 228 226 226 226 225 223 222 222 220 216 213 212 212 212 209 205 203 203 202 201
217 219 222 221 219 220 222 222 225 227 229 231 231 233 234 235 236 237 237 237 236 233 231 231 231 230 228 226 224 223 221 217 214 213 214 212 209 206 204 203 201 200
209 209 211 212 211 212 214 214 219 223 227 232 235 236 239 241 240 240 239 238 237 235 234 234 233 232 229 226 224 222 219 217 216 217 216 212 209 207 205 204 202 200
204 205 206 208 209 209 208 208 211 216 220 225 230 235 239 243 244 243 241 240 238 237 236 235 232 231 229 225 222 219 216 216 216 216 215 214 211 208 206 206 205 203
204 203 203 205 207 208 210 210 211 215 217 220 224 227 230 235 238 240 241 241 238 235 233 232 231 230 228 224 220 217 215 216 217 217 217 215 213 210 209 209 208 207
203 202 202 205 206 207 208 210 212 216 219 221 224 226 228 231 233 235 238 238 236 233 231 231 231 229 226 224 220 217 216 218 220 220 219 217 215 212 211 211 211 210
206 204 203 204 206 207 208 208 210 214 218 220 222 225 228 231 232 233 236 236 236 233 231 231 231 229 226 224 221 217 217 219 220 221 221 219 216 215 213 213 212 212
208 207 206 207 209 210 210 210 212 216 220 221 223 226 230 232 234 235 235 236 236 235 233 233 233 231 226 223 221 219 219 221 222 221 219 218 217 215 215 214 213 213
209 211 211 212 214 215 215 216 216 219 223 224 224 227 231 234 236 238 237 237 235 234 233 233 234 231 226 222 221 220 220 222 221 218 216 215 215 215 215 216 216 216
210 213 216 219 223 223 221 222 225 226 228 226 223 224 229 233 237 239 240 240 237 234 233 232 233 231 227 224 223 222 222 223 221 218 216 215 215 216 216 217 218 218